Back to catalog

STARLINK-11298

AliveCommunicationsVLEO
NORAD 61211·PAYLOAD·🇺🇸 United States

Launched Sep 20, 2024 from Vandenberg Space Force Base

Loading…

Next Passes (next 24 hours)

TLE

FreshSource: CelesTrak SupGP

Epoch: Sep 15, 2026, 03:36 UTC

1 61211C 24171M   26258.15048611  .00056044  00000+0  46153-3 0  2583
2 61211  53.1563 322.5853 0001266  83.4489 203.1606 15.69687584    13

Track STARLINK-11298 in real time with AllMySat

Download on the App Store